AFR338 LFPG-KSEA

Flight info

Callsign AFR338
Flight time N/A
Altitude 36000
Route ATREX DCT VESAN DCT RATUK DCT SOVAT DCT BARKU DCT RATSU/M085F380 DCT 66N020W 6830N03000W 70N040W 71N060W DCT NADMA/N0498F380 DCT 7050N07000W 70N080W 6830N09000W/N0496F400 65N100W 60N110W 55N116W DCT LONRO DCT YDC DCT JAKSN GLASR3
Aircraft A359/H-SDE2E3GHIJ3J4J5LM1ORWXY/LB1D1

Departure

Time 2026-04-30 10:55
Airport Charles de Gaulle International Airport (LFPG)

Arrival

Time N/A
Airport Seattle–Tacoma International Airport (KSEA)
Time Latitude Longitude Altitude Speed Heading
2026-04-30 10:30 49.00622 2.59147 360 ft 0 kts 265°
2026-04-30 10:35 49.00623 2.59158 366 ft 4 kts 265°
2026-04-30 10:36 49.00625 2.59198 366 ft 4 kts 263°
2026-04-30 10:36 49.00631 2.59237 364 ft 4 kts 240°
2026-04-30 10:36 49.00642 2.59264 365 ft 4 kts 257°
2026-04-30 10:36 49.00638 2.59294 366 ft 4 kts 327°
2026-04-30 10:37 49.00614 2.59307 363 ft 3 kts 356°
2026-04-30 10:37 49.00587 2.59310 360 ft 3 kts 355°
2026-04-30 10:37 49.00585 2.59311 360 ft 5 kts 355°
2026-04-30 10:40 49.00625 2.59303 366 ft 12 kts 352°
2026-04-30 10:40 49.00729 2.59286 366 ft 16 kts 354°
2026-04-30 10:41 49.00835 2.59271 367 ft 15 kts 348°
2026-04-30 10:41 49.00874 2.59147 369 ft 15 kts 268°
2026-04-30 10:41 49.00865 2.58989 367 ft 15 kts 269°
2026-04-30 10:41 49.00925 2.58867 368 ft 14 kts 316°
2026-04-30 10:42 49.00935 2.58732 362 ft 14 kts 268°
2026-04-30 10:42 49.00931 2.58582 365 ft 15 kts 266°
2026-04-30 10:42 49.00924 2.58420 367 ft 16 kts 265°
2026-04-30 10:42 49.00916 2.58247 364 ft 17 kts 265°
2026-04-30 10:43 49.00906 2.58062 366 ft 18 kts 265°
2026-04-30 10:43 49.00896 2.57866 360 ft 19 kts 265°
2026-04-30 10:43 49.00884 2.57659 364 ft 20 kts 265°
2026-04-30 10:43 49.00873 2.57441 365 ft 21 kts 265°
2026-04-30 10:44 49.00858 2.57217 366 ft 22 kts 265°
2026-04-30 10:44 49.00861 2.57056 365 ft 1 kts 288°
2026-04-30 10:44 49.00860 2.57052 365 ft 1 kts 274°
2026-04-30 10:44 49.00851 2.56976 367 ft 9 kts 259°
2026-04-30 10:45 49.00841 2.56870 366 ft 11 kts 265°
2026-04-30 10:45 49.00832 2.56725 361 ft 17 kts 264°
2026-04-30 10:45 49.00820 2.56516 364 ft 21 kts 262°
2026-04-30 10:45 49.00804 2.56270 360 ft 20 kts 290°
2026-04-30 10:46 49.00809 2.56249 367 ft 0 kts 291°
2026-04-30 10:46 49.00805 2.56266 366 ft 3 kts 275°
2026-04-30 10:46 49.00803 2.56274 361 ft 4 kts 260°
2026-04-30 10:46 49.00771 2.56061 363 ft 27 kts 264°
2026-04-30 10:47 49.00748 2.55793 367 ft 26 kts 263°
2026-04-30 10:47 49.00727 2.55520 368 ft 26 kts 263°
2026-04-30 10:47 49.00767 2.55333 369 ft 19 kts 336°
2026-04-30 10:47 49.00892 2.55276 366 ft 19 kts 345°
2026-04-30 10:48 49.01022 2.55220 367 ft 20 kts 343°
2026-04-30 10:48 49.01156 2.55161 369 ft 21 kts 343°
2026-04-30 10:48 49.01296 2.55099 363 ft 21 kts 345°
2026-04-30 10:48 49.01440 2.55045 366 ft 22 kts 347°
2026-04-30 10:49 49.01592 2.55024 365 ft 22 kts 355°
2026-04-30 10:49 49.01747 2.55003 363 ft 23 kts 355°
2026-04-30 10:49 49.01848 2.54921 366 ft 16 kts 280°
2026-04-30 10:49 49.01843 2.54752 366 ft 17 kts 265°
2026-04-30 10:50 49.01833 2.54571 361 ft 18 kts 265°
2026-04-30 10:50 49.01823 2.54379 367 ft 19 kts 265°
2026-04-30 10:50 49.01812 2.54175 366 ft 20 kts 265°
2026-04-30 10:50 49.01801 2.53960 368 ft 21 kts 266°
2026-04-30 10:51 49.01789 2.53735 367 ft 22 kts 266°
2026-04-30 10:51 49.01775 2.53504 368 ft 23 kts 264°
2026-04-30 10:51 49.01761 2.53268 361 ft 23 kts 264°
2026-04-30 10:51 49.01775 2.53032 369 ft 23 kts 291°
2026-04-30 10:52 49.01822 2.52803 363 ft 23 kts 273°
2026-04-30 10:52 49.01818 2.52558 366 ft 23 kts 265°
2026-04-30 10:52 49.01799 2.52312 363 ft 24 kts 263°
2026-04-30 10:52 49.01845 2.52129 368 ft 17 kts 321°
2026-04-30 10:53 49.01869 2.51959 364 ft 18 kts 265°
2026-04-30 10:53 49.01858 2.51768 363 ft 19 kts 265°
2026-04-30 10:53 49.01847 2.51565 362 ft 20 kts 265°
2026-04-30 10:53 49.01845 2.51355 364 ft 19 kts 290°
2026-04-30 10:54 49.01947 2.51259 366 ft 18 kts 12°
2026-04-30 10:54 49.02049 2.51368 366 ft 18 kts 51°
2026-04-30 10:54 49.02077 2.51545 366 ft 18 kts 85°
2026-04-30 10:54 49.02101 2.52001 366 ft 72 kts 85°
2026-04-30 10:55 49.02156 2.53032 366 ft 122 kts 85°
2026-04-30 10:55 49.02241 2.54548 393 ft 162 kts 86°
2026-04-30 10:55 49.02352 2.56232 998 ft 158 kts 84°
2026-04-30 10:55 49.02467 2.57910 1586 ft 162 kts 88°
2026-04-30 10:56 49.02551 2.59721 1842 ft 182 kts 86°
2026-04-30 10:56 49.02644 2.61794 2037 ft 209 kts 88°
2026-04-30 10:56 49.02756 2.64079 2340 ft 228 kts 88°
2026-04-30 10:56 49.02883 2.66529 2947 ft 235 kts 88°
2026-04-30 10:57 49.03013 2.69037 3577 ft 239 kts 88°
2026-04-30 10:57 49.03167 2.71582 4198 ft 245 kts 84°
2026-04-30 10:57 49.03704 2.74081 4801 ft 254 kts 63°
2026-04-30 10:57 49.04926 2.76049 5423 ft 263 kts 37°
2026-04-30 10:58 49.06685 2.76989 6042 ft 278 kts
2026-04-30 10:58 49.08622 2.76571 6737 ft 286 kts 345°
2026-04-30 10:58 49.10516 2.75527 7385 ft 291 kts 342°
2026-04-30 10:58 49.12418 2.74414 8061 ft 295 kts 343°
2026-04-30 10:59 49.14348 2.73294 8766 ft 297 kts 342°
2026-04-30 10:59 49.16285 2.72187 9493 ft 299 kts 342°
2026-04-30 10:59 49.18239 2.71083 10182 ft 302 kts 342°
2026-04-30 10:59 49.20270 2.69941 10483 ft 320 kts 342°
2026-04-30 11:00 49.22417 2.68736 10716 ft 338 kts 343°
2026-04-30 11:00 49.24685 2.67465 10978 ft 355 kts 342°
2026-04-30 11:00 49.27053 2.66137 11264 ft 370 kts 341°
2026-04-30 11:00 49.29524 2.64746 11514 ft 385 kts 342°
2026-04-30 11:01 49.32075 2.63308 11889 ft 395 kts 342°
2026-04-30 11:01 49.34674 2.61840 12400 ft 399 kts 341°
2026-04-30 11:01 49.37274 2.60371 13010 ft 401 kts 341°
2026-04-30 11:01 49.39897 2.58886 13629 ft 403 kts 341°
2026-04-30 11:02 49.42553 2.57383 14104 ft 409 kts 341°
2026-04-30 11:02 49.45243 2.55860 14537 ft 414 kts 342°
2026-04-30 11:02 49.47943 2.54328 15092 ft 415 kts 341°
2026-04-30 11:02 49.50654 2.52791 15662 ft 417 kts 341°
2026-04-30 11:03 49.53394 2.51234 16110 ft 422 kts 341°
2026-04-30 11:03 49.56160 2.49660 16602 ft 426 kts 341°
2026-04-30 11:03 49.58945 2.48072 17183 ft 428 kts 341°
2026-04-30 11:04 49.64556 2.44869 18266 ft 434 kts 341°
2026-04-30 11:04 49.67400 2.43243 18726 ft 437 kts 341°
2026-04-30 11:04 49.70261 2.41605 19225 ft 440 kts 341°
2026-04-30 11:04 49.73135 2.39958 19712 ft 442 kts 341°
2026-04-30 11:05 49.76032 2.38295 20178 ft 445 kts 342°
2026-04-30 11:05 49.78943 2.36623 20669 ft 448 kts 342°
2026-04-30 11:05 49.81875 2.34936 21183 ft 451 kts 342°
2026-04-30 11:05 49.84822 2.33234 21679 ft 454 kts 342°
2026-04-30 11:06 49.87794 2.31516 22167 ft 457 kts 342°
2026-04-30 11:06 49.90781 2.29786 22668 ft 460 kts 342°
2026-04-30 11:06 49.93793 2.28042 23156 ft 463 kts 342°
2026-04-30 11:06 49.96824 2.26284 23612 ft 468 kts 342°
2026-04-30 11:07 49.99887 2.24505 24000 ft 472 kts 342°
2026-04-30 11:07 50.02970 2.22712 24415 ft 475 kts 342°
2026-04-30 11:07 50.06074 2.20903 24812 ft 478 kts 342°
2026-04-30 11:07 50.09192 2.19084 25201 ft 481 kts 342°
2026-04-30 11:08 50.12334 2.17248 25579 ft 484 kts 342°
2026-04-30 11:08 50.15493 2.15400 25976 ft 487 kts 342°
2026-04-30 11:08 50.18635 2.13561 26348 ft 489 kts 342°
2026-04-30 11:08 50.21830 2.11687 26784 ft 491 kts 342°
2026-04-30 11:09 50.25040 2.09802 27158 ft 495 kts 342°
2026-04-30 11:09 50.28265 2.07905 27532 ft 497 kts 342°
2026-04-30 11:09 50.31514 2.05990 27909 ft 500 kts 342°
2026-04-30 11:09 50.34755 2.03938 28264 ft 505 kts 337°
2026-04-30 11:10 50.37829 2.01230 28602 ft 511 kts 328°
2026-04-30 11:10 50.40677 1.97866 28920 ft 515 kts 322°
2026-04-30 11:10 50.43442 1.94288 29292 ft 517 kts 321°
2026-04-30 11:10 50.46172 1.90601 29633 ft 519 kts 320°
2026-04-30 11:11 50.48894 1.86850 29918 ft 522 kts 320°
2026-04-30 11:11 50.51623 1.83067 30146 ft 526 kts 319°
2026-04-30 11:11 50.54380 1.79246 30385 ft 528 kts 320°
2026-04-30 11:11 50.57135 1.75436 30796 ft 526 kts 320°
2026-04-30 11:12 50.59874 1.71655 31285 ft 523 kts 320°
2026-04-30 11:12 50.62606 1.67888 31709 ft 520 kts 320°
2026-04-30 11:12 50.65325 1.64139 32095 ft 518 kts 320°
2026-04-30 11:12 50.68031 1.60410 32502 ft 516 kts 320°
2026-04-30 11:13 50.70727 1.56682 32867 ft 514 kts 320°
2026-04-30 11:13 50.73416 1.52954 33217 ft 513 kts 320°
2026-04-30 11:13 50.76090 1.49293 33526 ft 512 kts 322°
2026-04-30 11:13 50.78988 1.46057 33829 ft 509 kts 331°
2026-04-30 11:14 50.82056 1.43282 34127 ft 507 kts 333°
2026-04-30 11:14 50.85153 1.40622 34409 ft 506 kts 334°
2026-04-30 11:14 50.88271 1.38018 34568 ft 507 kts 334°
2026-04-30 11:14 50.91404 1.35435 34744 ft 508 kts 334°
2026-04-30 11:15 50.94539 1.32854 35005 ft 506 kts 334°
2026-04-30 11:15 50.97655 1.30282 35279 ft 505 kts 334°
2026-04-30 11:15 51.00764 1.27703 35525 ft 503 kts 334°
2026-04-30 11:15 51.03862 1.25124 35751 ft 502 kts 334°
2026-04-30 11:16 51.06951 1.22543 35966 ft 501 kts 333°
2026-04-30 11:16 51.10034 1.19961 36178 ft 501 kts 333°
2026-04-30 11:16 51.13119 1.17372 36268 ft 503 kts 333°
2026-04-30 11:17 51.19347 1.12135 36261 ft 508 kts 333°
2026-04-30 11:17 51.25583 1.06874 36263 ft 506 kts 333°
2026-04-30 11:18 51.31806 1.01608 36267 ft 506 kts 333°
2026-04-30 11:18 51.41152 0.93670 36267 ft 508 kts 333°
2026-04-30 11:19 51.47326 0.88404 36265 ft 510 kts 333°
2026-04-30 11:19 51.53594 0.83048 36265 ft 510 kts 333°
2026-04-30 11:20 51.58801 0.78594 36262 ft 510 kts 333°
2026-04-30 11:20 51.66086 0.72332 36266 ft 510 kts 333°
2026-04-30 11:21 51.71332 0.67805 36266 ft 510 kts 333°
2026-04-30 11:21 51.77592 0.62386 36268 ft 510 kts 332°
2026-04-30 11:22 51.83803 0.56990 36279 ft 510 kts 332°
2026-04-30 11:22 51.91107 0.50625 36285 ft 510 kts 332°
2026-04-30 11:23 51.96300 0.46084 36289 ft 511 kts 332°
2026-04-30 11:24 52.05696 0.37840 36280 ft 512 kts 332°
2026-04-30 11:24 52.11959 0.32322 36291 ft 512 kts 332°
2026-04-30 11:25 52.21339 0.24023 36293 ft 511 kts 332°
2026-04-30 11:26 52.33835 0.12906 36289 ft 511 kts 332°
2026-04-30 11:26 52.40072 0.07331 36270 ft 511 kts 332°
2026-04-30 11:27 52.46309 0.01737 36272 ft 511 kts 332°
2026-04-30 11:27 52.52535 -0.03866 36262 ft 512 kts 332°
2026-04-30 11:28 52.61916 -0.12342 36269 ft 513 kts 331°
2026-04-30 11:29 52.68190 -0.18034 36269 ft 513 kts 331°
2026-04-30 11:29 52.77542 -0.26553 36276 ft 513 kts 331°
2026-04-30 11:30 52.86895 -0.35116 36292 ft 513 kts 331°
2026-04-30 11:31 52.93159 -0.40875 36293 ft 513 kts 331°
2026-04-30 11:31 52.99394 -0.46626 36293 ft 513 kts 331°
2026-04-30 11:32 53.05611 -0.52379 36291 ft 512 kts 330°
2026-04-30 11:32 53.11814 -0.58139 36292 ft 512 kts 330°
2026-04-30 11:33 53.21162 -0.66856 36292 ft 512 kts 330°
2026-04-30 11:33 53.27352 -0.72652 36294 ft 512 kts 330°
2026-04-30 11:34 53.33547 -0.78472 36299 ft 512 kts 330°
2026-04-30 11:34 53.39746 -0.84315 36303 ft 512 kts 330°
2026-04-30 11:35 53.45964 -0.90197 36312 ft 512 kts 330°
2026-04-30 11:35 53.52150 -0.96069 36311 ft 512 kts 330°
2026-04-30 11:36 53.58368 -1.01990 36316 ft 512 kts 330°
2026-04-30 11:36 53.64537 -1.07884 36312 ft 514 kts 330°
2026-04-30 11:37 53.70777 -1.13867 36308 ft 515 kts 330°
2026-04-30 11:37 53.76985 -1.19839 36312 ft 516 kts 330°
2026-04-30 11:38 53.83208 -1.25847 36301 ft 516 kts 329°
2026-04-30 11:38 53.89462 -1.31906 36301 ft 516 kts 329°
2026-04-30 11:39 53.95693 -1.37964 36302 ft 516 kts 329°
2026-04-30 11:39 54.01894 -1.44012 36303 ft 516 kts 329°
2026-04-30 11:40 54.08127 -1.50114 36305 ft 515 kts 329°
2026-04-30 11:40 54.14330 -1.56209 36320 ft 515 kts 329°
2026-04-30 11:41 54.20539 -1.62329 36322 ft 517 kts 329°
2026-04-30 11:41 54.26794 -1.68517 36318 ft 518 kts 329°
2026-04-30 11:42 54.33000 -1.74678 36318 ft 517 kts 329°
2026-04-30 11:42 54.39215 -1.80870 36319 ft 517 kts 329°
2026-04-30 11:43 54.45454 -1.87109 36321 ft 517 kts 329°
2026-04-30 11:43 54.51657 -1.93332 36308 ft 517 kts 328°
2026-04-30 11:44 54.57892 -1.99610 36311 ft 517 kts 328°
2026-04-30 11:44 54.64081 -2.05865 36315 ft 517 kts 328°
2026-04-30 11:45 54.70262 -2.12134 36312 ft 516 kts 328°
2026-04-30 11:45 54.76454 -2.18436 36307 ft 516 kts 328°
2026-04-30 11:46 54.82654 -2.24768 36308 ft 516 kts 328°
2026-04-30 11:46 54.88816 -2.31086 36301 ft 516 kts 328°
2026-04-30 11:47 54.94976 -2.37423 36297 ft 515 kts 328°
2026-04-30 11:47 55.01168 -2.43818 36291 ft 515 kts 328°
2026-04-30 11:48 55.07308 -2.50181 36292 ft 514 kts 328°
2026-04-30 11:48 55.13426 -2.56544 36292 ft 513 kts 328°
2026-04-30 11:49 55.19588 -2.62974 36295 ft 513 kts 327°
2026-04-30 11:49 55.25704 -2.69382 36298 ft 513 kts 327°
2026-04-30 11:50 55.31803 -2.75794 36300 ft 511 kts 327°
2026-04-30 11:50 55.37904 -2.82233 36317 ft 513 kts 327°
2026-04-30 11:51 55.44043 -2.88736 36295 ft 513 kts 327°
2026-04-30 11:51 55.50144 -2.95221 36298 ft 513 kts 327°
2026-04-30 11:52 55.56270 -3.01757 36302 ft 515 kts 327°
2026-04-30 11:52 55.62368 -3.08286 36319 ft 515 kts 327°
2026-04-30 11:53 55.68513 -3.14890 36305 ft 515 kts 327°
2026-04-30 11:53 55.74608 -3.21466 36316 ft 514 kts 327°
2026-04-30 11:54 55.80728 -3.28093 36313 ft 514 kts 327°
2026-04-30 11:54 55.86806 -3.34699 36318 ft 513 kts 326°
2026-04-30 11:55 55.92891 -3.41337 36327 ft 514 kts 326°
2026-04-30 11:55 55.99019 -3.48049 36318 ft 516 kts 326°
2026-04-30 11:56 56.05130 -3.54764 36322 ft 516 kts 326°
2026-04-30 11:56 56.11227 -3.61490 36321 ft 516 kts 326°
2026-04-30 11:57 56.17323 -3.68240 36319 ft 516 kts 326°
2026-04-30 11:57 56.23452 -3.75053 36318 ft 516 kts 326°
2026-04-30 11:58 56.29534 -3.81841 36326 ft 515 kts 326°
2026-04-30 11:58 56.35614 -3.88651 36328 ft 515 kts 326°
2026-04-30 11:59 56.41725 -3.95523 36325 ft 515 kts 326°
2026-04-30 11:59 56.47788 -4.02366 36325 ft 515 kts 326°
2026-04-30 12:00 56.53852 -4.09236 36323 ft 517 kts 325°
2026-04-30 12:00 56.59963 -4.16187 36312 ft 517 kts 326°
2026-04-30 12:01 56.66028 -4.23114 36306 ft 516 kts 325°
2026-04-30 12:01 56.72118 -4.30093 36297 ft 516 kts 325°
2026-04-30 12:02 56.78176 -4.37061 36300 ft 516 kts 324°
2026-04-30 12:02 56.84233 -4.44057 36296 ft 515 kts 324°
2026-04-30 12:03 56.93306 -4.54589 36279 ft 515 kts 324°
2026-04-30 12:04 56.99375 -4.61669 36275 ft 515 kts 324°
2026-04-30 12:04 57.05404 -4.68726 36272 ft 514 kts 324°
2026-04-30 12:05 57.11416 -4.75794 36259 ft 514 kts 324°
2026-04-30 12:05 57.17466 -4.82935 36258 ft 514 kts 324°
2026-04-30 12:06 57.23448 -4.90023 36261 ft 514 kts 324°
2026-04-30 12:06 57.29483 -4.97200 36264 ft 514 kts 323°
2026-04-30 12:07 57.35483 -5.04366 36251 ft 513 kts 323°
2026-04-30 12:07 57.41474 -5.11548 36247 ft 513 kts 323°
2026-04-30 12:08 57.46446 -5.17530 36248 ft 513 kts 323°
2026-04-30 12:08 57.53409 -5.25940 36248 ft 513 kts 323°
2026-04-30 12:09 57.59381 -5.33184 36245 ft 511 kts 323°
2026-04-30 12:09 57.64368 -5.39256 36246 ft 510 kts 323°
2026-04-30 12:10 57.70303 -5.46511 36260 ft 510 kts 323°
2026-04-30 12:10 57.76219 -5.53770 36248 ft 508 kts 323°
2026-04-30 12:11 57.82087 -5.60998 36250 ft 507 kts 323°
2026-04-30 12:11 57.87973 -5.68277 36251 ft 506 kts 322°
2026-04-30 12:12 57.93843 -5.75565 36254 ft 505 kts 322°
2026-04-30 12:12 57.99711 -5.82882 36255 ft 505 kts 322°
2026-04-30 12:13 58.05573 -5.90219 36259 ft 505 kts 322°
2026-04-30 12:13 58.11425 -5.97572 36261 ft 504 kts 322°
2026-04-30 12:14 58.17260 -6.04933 36264 ft 504 kts 322°
2026-04-30 12:14 58.23086 -6.12313 36265 ft 504 kts 322°
2026-04-30 12:15 58.28916 -6.19729 36272 ft 504 kts 322°
2026-04-30 12:15 58.34747 -6.27174 36271 ft 505 kts 321°
2026-04-30 12:16 58.40544 -6.34607 36254 ft 506 kts 321°
2026-04-30 12:16 58.46375 -6.42113 36251 ft 505 kts 321°
2026-04-30 12:17 58.55114 -6.53419 36251 ft 505 kts 321°
2026-04-30 12:17 58.60933 -6.60987 36251 ft 505 kts 321°
2026-04-30 12:18 58.66749 -6.68581 36251 ft 505 kts 321°
2026-04-30 12:18 58.72555 -6.76195 36252 ft 505 kts 321°
2026-04-30 12:19 58.78363 -6.83842 36247 ft 505 kts 321°
2026-04-30 12:19 58.84156 -6.91500 36251 ft 505 kts 321°
2026-04-30 12:20 58.89943 -6.99180 36248 ft 503 kts 320°
2026-04-30 12:20 58.95713 -7.06872 36250 ft 503 kts 320°
2026-04-30 12:21 59.01453 -7.14557 36244 ft 503 kts 320°
2026-04-30 12:21 59.07213 -7.22300 36241 ft 503 kts 320°
2026-04-30 12:22 59.12933 -7.30019 36251 ft 503 kts 320°
2026-04-30 12:22 59.18668 -7.37790 36238 ft 502 kts 320°
2026-04-30 12:23 59.24405 -7.45598 36224 ft 502 kts 320°
2026-04-30 12:23 59.30117 -7.53406 36238 ft 501 kts 320°
2026-04-30 12:24 59.35835 -7.61253 36231 ft 501 kts 320°
2026-04-30 12:24 59.41508 -7.69070 36230 ft 501 kts 319°
2026-04-30 12:25 59.47214 -7.76967 36230 ft 501 kts 319°
2026-04-30 12:25 59.52912 -7.84884 36225 ft 501 kts 319°
2026-04-30 12:26 59.58621 -7.92854 36222 ft 502 kts 319°
2026-04-30 12:26 59.64326 -8.00849 36244 ft 502 kts 319°
2026-04-30 12:27 59.70017 -8.08858 36213 ft 502 kts 318°
2026-04-30 12:27 59.75664 -8.16841 36211 ft 502 kts 318°
2026-04-30 12:28 59.81338 -8.24896 36203 ft 501 kts 318°
2026-04-30 12:28 59.87013 -8.32988 36203 ft 501 kts 318°
2026-04-30 12:29 59.92675 -8.41094 36213 ft 501 kts 317°
2026-04-30 12:29 59.98333 -8.49227 36203 ft 501 kts 317°
2026-04-30 12:30 60.03983 -8.57387 36194 ft 501 kts 317°
2026-04-30 12:30 60.09635 -8.65585 36195 ft 501 kts 317°
2026-04-30 12:31 60.15277 -8.73801 36183 ft 502 kts 317°
2026-04-30 12:31 60.20885 -8.82005 36194 ft 501 kts 317°
2026-04-30 12:32 60.26518 -8.90280 36179 ft 501 kts 317°
2026-04-30 12:32 60.32154 -8.98597 36179 ft 501 kts 316°
2026-04-30 12:33 60.37773 -9.06927 36179 ft 501 kts 316°
2026-04-30 12:33 60.43349 -9.15227 36179 ft 501 kts 316°
2026-04-30 12:34 60.48958 -9.23614 36173 ft 501 kts 316°
2026-04-30 12:34 60.54563 -9.32032 36170 ft 501 kts 316°
2026-04-30 12:35 60.60163 -9.40479 36170 ft 501 kts 316°
2026-04-30 12:35 60.65794 -9.48885 36165 ft 502 kts 317°
2026-04-30 12:36 60.71460 -9.57218 36186 ft 502 kts 317°
2026-04-30 12:36 60.77128 -9.65604 36161 ft 505 kts 317°
2026-04-30 12:37 60.82785 -9.74035 36157 ft 506 kts 317°
2026-04-30 12:37 60.88459 -9.82538 36151 ft 505 kts 316°
2026-04-30 12:38 60.94138 -9.91089 36149 ft 505 kts 316°
2026-04-30 12:38 60.99802 -9.99659 36145 ft 505 kts 316°
2026-04-30 12:39 61.05407 -10.08335 36144 ft 502 kts 315°
2026-04-30 12:39 61.10935 -10.17168 36134 ft 502 kts 315°
2026-04-30 12:40 61.16460 -10.26026 36134 ft 502 kts 315°
2026-04-30 12:40 61.21987 -10.34883 36125 ft 502 kts 315°
2026-04-30 12:41 61.27512 -10.43755 36121 ft 502 kts 315°
2026-04-30 12:41 61.33002 -10.52609 36115 ft 502 kts 315°
2026-04-30 12:42 61.38516 -10.61548 36116 ft 502 kts 315°
2026-04-30 12:42 61.44017 -10.70506 36116 ft 501 kts 315°
2026-04-30 12:43 61.49519 -10.79506 36145 ft 501 kts 315°
2026-04-30 12:43 61.55005 -10.88521 36103 ft 500 kts 315°
2026-04-30 12:44 61.60469 -10.97543 36106 ft 499 kts 315°
2026-04-30 12:44 61.65892 -11.06537 36106 ft 499 kts 315°
2026-04-30 12:45 61.71341 -11.15619 36085 ft 499 kts 315°
2026-04-30 12:45 61.76780 -11.24723 36124 ft 499 kts 315°
2026-04-30 12:46 61.82210 -11.33856 36085 ft 498 kts 314°
2026-04-30 12:46 61.87624 -11.43004 36086 ft 498 kts 314°
2026-04-30 12:47 61.93037 -11.52194 36080 ft 498 kts 314°
2026-04-30 12:47 61.98441 -11.61412 36079 ft 498 kts 314°
2026-04-30 12:48 62.03802 -11.70598 36119 ft 498 kts 313°
2026-04-30 12:48 62.09213 -11.79914 36080 ft 499 kts 313°
2026-04-30 12:49 62.14586 -11.89205 36075 ft 499 kts 313°
2026-04-30 12:49 62.19989 -11.98595 36074 ft 499 kts 313°
2026-04-30 12:50 62.25353 -12.07961 36070 ft 498 kts 313°
2026-04-30 12:50 62.30747 -12.17423 36089 ft 499 kts 313°
2026-04-30 12:51 62.36100 -12.26861 36067 ft 499 kts 313°
2026-04-30 12:51 62.41452 -12.36341 36066 ft 499 kts 313°
2026-04-30 12:52 62.46835 -12.45921 36059 ft 499 kts 313°
2026-04-30 12:52 62.52170 -12.55461 36059 ft 499 kts 312°
2026-04-30 12:53 62.57497 -12.65032 36084 ft 499 kts 312°
2026-04-30 12:53 62.62872 -12.74741 36055 ft 501 kts 312°
2026-04-30 12:54 62.68203 -12.84413 36040 ft 501 kts 312°
2026-04-30 12:54 62.73536 -12.94136 36044 ft 501 kts 311°
2026-04-30 12:55 62.78862 -13.03893 36038 ft 500 kts 311°
2026-04-30 12:55 62.84208 -13.13737 36048 ft 500 kts 311°
2026-04-30 12:56 62.89507 -13.23542 36028 ft 500 kts 311°
2026-04-30 12:56 62.94801 -13.33386 36029 ft 500 kts 311°
2026-04-30 12:57 62.99217 -13.41634 36021 ft 500 kts 311°
2026-04-30 12:57 63.05381 -13.53205 36021 ft 499 kts 311°
2026-04-30 12:58 63.09796 -13.61534 36044 ft 499 kts 311°
2026-04-30 12:58 63.15045 -13.71480 36053 ft 499 kts 311°
2026-04-30 12:59 63.20314 -13.81514 36003 ft 498 kts 312°
2026-04-30 12:59 63.25543 -13.91523 36007 ft 497 kts 312°
2026-04-30 13:00 63.30775 -14.01588 35993 ft 497 kts 311°
2026-04-30 13:00 63.35991 -14.11673 36036 ft 497 kts 311°
2026-04-30 13:01 63.41210 -14.21812 35999 ft 497 kts 311°
2026-04-30 13:01 63.46424 -14.31991 35981 ft 497 kts 311°
2026-04-30 13:02 63.51587 -14.42121 35977 ft 497 kts 311°
2026-04-30 13:02 63.56778 -14.52359 35982 ft 497 kts 311°
2026-04-30 13:03 63.61963 -14.62636 36016 ft 497 kts 311°
2026-04-30 13:03 63.67144 -14.72959 35969 ft 497 kts 311°
2026-04-30 13:04 63.72318 -14.83320 35958 ft 497 kts 311°
2026-04-30 13:04 63.77477 -14.93704 35964 ft 496 kts 311°
2026-04-30 13:05 63.82611 -15.04085 35948 ft 494 kts 311°
2026-04-30 13:06 63.90282 -15.19703 35946 ft 493 kts 311°
2026-04-30 13:06 63.95378 -15.30147 35937 ft 493 kts 311°
2026-04-30 13:07 64.00472 -15.40638 35929 ft 493 kts 311°
2026-04-30 13:07 64.05522 -15.51093 35929 ft 493 kts 311°
2026-04-30 13:08 64.10620 -15.61699 35927 ft 493 kts 311°
2026-04-30 13:08 64.15670 -15.72260 35933 ft 493 kts 311°
2026-04-30 13:09 64.20717 -15.82871 35922 ft 493 kts 311°
2026-04-30 13:09 64.25790 -15.93589 35921 ft 493 kts 310°
2026-04-30 13:10 64.30817 -16.04267 35926 ft 493 kts 310°
2026-04-30 13:10 64.35850 -16.15017 35922 ft 493 kts 311°
2026-04-30 13:11 64.40856 -16.25761 35960 ft 491 kts 310°
2026-04-30 13:11 64.45835 -16.36505 35913 ft 492 kts 310°
2026-04-30 13:12 64.50861 -16.47409 35910 ft 492 kts 310°
2026-04-30 13:12 64.55843 -16.58272 35901 ft 492 kts 310°
2026-04-30 13:13 64.63317 -16.74675 35903 ft 492 kts 310°
2026-04-30 13:14 64.70771 -16.91163 35888 ft 493 kts 309°
2026-04-30 13:14 64.78217 -17.07769 35881 ft 494 kts 309°
2026-04-30 13:15 64.85652 -17.24484 35887 ft 494 kts 309°
2026-04-30 13:16 64.90621 -17.35731 35875 ft 493 kts 309°
2026-04-30 13:16 64.95538 -17.46921 35877 ft 492 kts 309°
2026-04-30 13:17 65.02923 -17.63835 35872 ft 491 kts 309°
2026-04-30 13:18 65.10255 -17.80771 35864 ft 491 kts 309°
2026-04-30 13:18 65.17572 -17.97811 35907 ft 491 kts 309°
2026-04-30 13:19 65.22413 -18.09161 35854 ft 492 kts 309°
2026-04-30 13:19 65.27298 -18.20676 35855 ft 492 kts 309°
2026-04-30 13:20 65.32139 -18.32153 35843 ft 492 kts 309°
2026-04-30 13:20 65.36994 -18.43724 35843 ft 491 kts 309°
2026-04-30 13:21 65.41823 -18.55290 35829 ft 491 kts 309°
2026-04-30 13:22 65.49057 -18.72748 35823 ft 492 kts 309°
2026-04-30 13:22 65.56280 -18.90318 35828 ft 491 kts 309°
2026-04-30 13:23 65.63484 -19.07996 35825 ft 490 kts 309°
2026-04-30 13:24 65.73029 -19.31648 35821 ft 491 kts 309°
2026-04-30 13:25 65.82510 -19.55402 35808 ft 490 kts 309°
2026-04-30 13:26 65.94331 -19.85400 35845 ft 490 kts 309°
2026-04-30 13:28 66.05355 -20.17126 35795 ft 486 kts 302°
2026-04-30 13:28 66.11464 -20.37020 35784 ft 484 kts 302°
2026-04-30 13:29 66.19544 -20.63625 35791 ft 484 kts 302°
2026-04-30 13:31 66.29590 -20.97093 35769 ft 485 kts 302°
2026-04-30 13:32 66.39584 -21.30897 35763 ft 484 kts 302°
2026-04-30 13:33 66.47505 -21.58064 35755 ft 484 kts 302°
2026-04-30 13:34 66.53419 -21.78563 35748 ft 482 kts 302°
2026-04-30 13:35 66.61235 -22.05958 35745 ft 482 kts 302°
2026-04-30 13:36 66.68988 -22.33470 35740 ft 483 kts 301°
2026-04-30 13:36 66.74787 -22.54272 35736 ft 483 kts 301°
2026-04-30 13:37 66.80559 -22.75176 35733 ft 483 kts 301°
2026-04-30 13:38 66.86296 -22.96154 35728 ft 482 kts 301°
2026-04-30 13:39 66.93895 -23.24248 35720 ft 481 kts 301°
2026-04-30 13:40 66.99552 -23.45397 35716 ft 481 kts 301°
2026-04-30 13:40 67.03319 -23.59595 35716 ft 481 kts 301°
2026-04-30 13:41 67.07048 -23.73741 35716 ft 481 kts 300°
2026-04-30 13:41 67.10772 -23.87958 35723 ft 481 kts 300°
2026-04-30 13:42 67.14505 -24.02304 35713 ft 482 kts 300°
2026-04-30 13:42 67.20067 -24.23854 35716 ft 482 kts 300°
2026-04-30 13:43 67.23754 -24.38256 35716 ft 481 kts 300°
2026-04-30 13:43 67.27415 -24.52649 35719 ft 480 kts 300°
2026-04-30 13:44 67.30459 -24.64690 35719 ft 479 kts 300°
2026-04-30 13:44 67.34706 -24.81604 35719 ft 481 kts 300°
2026-04-30 13:45 67.39543 -25.01028 35718 ft 481 kts 300°
2026-04-30 13:46 67.43175 -25.15722 35719 ft 481 kts 300°
2026-04-30 13:46 67.46763 -25.30341 35726 ft 481 kts 299°
2026-04-30 13:47 67.50345 -25.45033 35723 ft 480 kts 299°
2026-04-30 13:47 67.53917 -25.59782 35724 ft 481 kts 299°
2026-04-30 13:48 67.57478 -25.74591 35725 ft 482 kts 299°
2026-04-30 13:48 67.61049 -25.89536 35731 ft 482 kts 299°
2026-04-30 13:49 67.64579 -26.04409 35731 ft 481 kts 299°
2026-04-30 13:49 67.68106 -26.19375 35730 ft 480 kts 299°
2026-04-30 13:50 67.71598 -26.34300 35730 ft 480 kts 299°
2026-04-30 13:50 67.76823 -26.56821 35732 ft 480 kts 298°
2026-04-30 13:51 67.80305 -26.71960 35737 ft 480 kts 298°
2026-04-30 13:51 67.83757 -26.87074 35730 ft 480 kts 298°
2026-04-30 13:52 67.87190 -27.02208 35733 ft 480 kts 298°
2026-04-30 13:52 67.90625 -27.17463 35731 ft 480 kts 298°
2026-04-30 13:53 67.94030 -27.32687 35733 ft 480 kts 298°
2026-04-30 13:53 67.97443 -27.48060 35723 ft 481 kts 298°
2026-04-30 13:54 68.00817 -27.63362 35735 ft 480 kts 298°
2026-04-30 13:54 68.04175 -27.78700 35741 ft 480 kts 298°
2026-04-30 13:55 68.07536 -27.94165 35742 ft 480 kts 297°
2026-04-30 13:55 68.10860 -28.09573 35750 ft 480 kts 297°
2026-04-30 13:56 68.14199 -28.25161 35743 ft 480 kts 297°
2026-04-30 13:56 68.17494 -28.40655 35741 ft 480 kts 297°
2026-04-30 13:57 68.20794 -28.56287 35744 ft 480 kts 297°
2026-04-30 13:57 68.24092 -28.72022 35748 ft 480 kts 297°
2026-04-30 13:58 68.28985 -28.95587 35759 ft 480 kts 297°
2026-04-30 13:59 68.32221 -29.11316 35750 ft 480 kts 297°
2026-04-30 13:59 68.35458 -29.27167 35758 ft 479 kts 297°
2026-04-30 14:00 68.38661 -29.42972 35766 ft 480 kts 296°
2026-04-30 14:00 68.43443 -29.66793 35792 ft 479 kts 296°
2026-04-30 14:01 68.46631 -29.82821 35789 ft 480 kts 296°
2026-04-30 14:01 68.49783 -29.98792 35824 ft 480 kts 296°
2026-04-30 14:02 68.52899 -30.14909 35816 ft 479 kts 295°
2026-04-30 14:02 68.55930 -30.31016 35815 ft 479 kts 295°
2026-04-30 14:03 68.58978 -30.47324 35842 ft 479 kts 295°
2026-04-30 14:03 68.61993 -30.63532 35860 ft 479 kts 295°
2026-04-30 14:04 68.64999 -30.79791 35837 ft 479 kts 295°
2026-04-30 14:04 68.67992 -30.96102 35827 ft 478 kts 295°
2026-04-30 14:05 68.70976 -31.12503 35829 ft 478 kts 295°
2026-04-30 14:05 68.73928 -31.28857 35840 ft 478 kts 295°
2026-04-30 14:06 68.78326 -31.53471 35840 ft 477 kts 294°
2026-04-30 14:07 68.82690 -31.78189 35845 ft 477 kts 294°
2026-04-30 14:08 68.87016 -32.02990 35851 ft 477 kts 294°
2026-04-30 14:08 68.91325 -32.28005 35864 ft 479 kts 294°
2026-04-30 14:09 68.94176 -32.44731 35872 ft 481 kts 294°
2026-04-30 14:10 68.98437 -32.69982 35872 ft 481 kts 293°
2026-04-30 14:10 69.01268 -32.86939 35904 ft 481 kts 293°
2026-04-30 14:11 69.04059 -33.03797 35905 ft 481 kts 293°
2026-04-30 14:11 69.06857 -33.20852 35903 ft 481 kts 293°
2026-04-30 14:12 69.09604 -33.37658 35937 ft 470 kts 292°
2026-04-30 14:12 69.12288 -33.54303 35967 ft 466 kts 292°
2026-04-30 14:13 69.14927 -33.70910 35981 ft 468 kts 291°
2026-04-30 14:13 69.17576 -33.87735 35982 ft 477 kts 292°
2026-04-30 14:14 69.20292 -34.04914 35978 ft 479 kts 292°
2026-04-30 14:14 69.22964 -34.21905 35983 ft 475 kts 292°
2026-04-30 14:15 69.25591 -34.38966 35991 ft 475 kts 292°
2026-04-30 14:15 69.28221 -34.56088 35980 ft 472 kts 291°
2026-04-30 14:16 69.30788 -34.73052 35982 ft 472 kts 291°
2026-04-30 14:16 69.33373 -34.90285 35982 ft 475 kts 291°
2026-04-30 14:17 69.35943 -35.07504 35991 ft 476 kts 291°
2026-04-30 14:17 69.38501 -35.24760 35989 ft 475 kts 291°
2026-04-30 14:18 69.41037 -35.42043 35982 ft 471 kts 291°
2026-04-30 14:18 69.44773 -35.67932 35993 ft 475 kts 291°
2026-04-30 14:19 69.48523 -35.94219 35982 ft 477 kts 290°
2026-04-30 14:20 69.50986 -36.11658 35980 ft 476 kts 290°
2026-04-30 14:20 69.54664 -36.38036 35974 ft 477 kts 290°
2026-04-30 14:21 69.57108 -36.55762 35980 ft 478 kts 290°
2026-04-30 14:22 69.60726 -36.82332 35974 ft 478 kts 290°
2026-04-30 14:22 69.64310 -37.09051 35961 ft 478 kts 290°
2026-04-30 14:23 69.69027 -37.44821 35963 ft 478 kts 289°
2026-04-30 14:24 69.72509 -37.71693 35959 ft 478 kts 289°
2026-04-30 14:25 69.77098 -38.07745 35966 ft 478 kts 289°
2026-04-30 14:26 69.80481 -38.34804 35968 ft 477 kts 289°
2026-04-30 14:27 69.83827 -38.61987 35977 ft 477 kts 289°
2026-04-30 14:27 69.86031 -38.80125 35993 ft 477 kts 288°
2026-04-30 14:28 69.89300 -39.07384 36009 ft 477 kts 288°
2026-04-30 14:28 69.91465 -39.25688 36009 ft 477 kts 288°
2026-04-30 14:29 69.95372 -39.59220 36038 ft 477 kts 288°
2026-04-30 14:31 70.00940 -40.08222 36054 ft 477 kts 287°
2026-04-30 14:31 70.03612 -40.32804 36083 ft 477 kts 287°
2026-04-30 14:32 70.06576 -40.60578 36081 ft 477 kts 287°
2026-04-30 14:33 70.08531 -40.79109 36095 ft 477 kts 286°
2026-04-30 14:33 70.11435 -41.07014 36108 ft 477 kts 286°
2026-04-30 14:34 70.13355 -41.25742 36113 ft 477 kts 286°
2026-04-30 14:34 70.15243 -41.44385 36113 ft 477 kts 286°
2026-04-30 14:35 70.18042 -41.72452 36116 ft 477 kts 285°
2026-04-30 14:36 70.19882 -41.91180 36125 ft 476 kts 285°
2026-04-30 14:36 70.21699 -42.09915 36133 ft 475 kts 285°
2026-04-30 14:37 70.23508 -42.28807 36132 ft 475 kts 285°
2026-04-30 14:37 70.25283 -42.47571 36132 ft 475 kts 285°
2026-04-30 14:38 70.27039 -42.66379 36143 ft 475 kts 285°
2026-04-30 14:38 70.28777 -42.85236 36143 ft 475 kts 284°
2026-04-30 14:39 70.30507 -43.04250 36141 ft 475 kts 284°
2026-04-30 14:39 70.32201 -43.23122 36148 ft 475 kts 284°
2026-04-30 14:40 70.34715 -43.51613 36149 ft 476 kts 284°
2026-04-30 14:40 70.36364 -43.70608 36148 ft 476 kts 284°
2026-04-30 14:41 70.37999 -43.89713 36150 ft 475 kts 284°
2026-04-30 14:41 70.39602 -44.08707 36154 ft 474 kts 283°
2026-04-30 14:42 70.41185 -44.27727 36154 ft 474 kts 283°
2026-04-30 14:42 70.42758 -44.46906 36154 ft 474 kts 283°
2026-04-30 14:43 70.44291 -44.65866 36158 ft 474 kts 283°
2026-04-30 14:43 70.45818 -44.85023 36157 ft 474 kts 283°
2026-04-30 14:44 70.47328 -45.04256 36437 ft 475 kts 283°
2026-04-30 14:44 70.48074 -45.13860 36683 ft 473 kts 282°
2026-04-30 14:44 70.48813 -45.23449 36897 ft 473 kts 282°
2026-04-30 14:45 70.49546 -45.33043 37076 ft 473 kts 282°
2026-04-30 14:45 70.50275 -45.42649 37261 ft 473 kts 282°
2026-04-30 14:45 70.50990 -45.52132 37424 ft 473 kts 282°
2026-04-30 14:45 70.51708 -45.61750 37600 ft 473 kts 282°
2026-04-30 14:46 70.52422 -45.71376 37759 ft 473 kts 282°
2026-04-30 14:46 70.53132 -45.81019 37914 ft 473 kts 282°
2026-04-30 14:46 70.53834 -45.90642 38100 ft 473 kts 282°
2026-04-30 14:46 70.54532 -46.00275 38155 ft 473 kts 282°
2026-04-30 14:47 70.55913 -46.19586 38157 ft 473 kts 281°
2026-04-30 14:47 70.57276 -46.38948 38157 ft 473 kts 281°
2026-04-30 14:48 70.58616 -46.58296 38154 ft 473 kts 281°
2026-04-30 14:48 70.59927 -46.77551 38152 ft 473 kts 281°
2026-04-30 14:49 70.61228 -46.96991 38154 ft 473 kts 281°
2026-04-30 14:49 70.62508 -47.16429 38148 ft 473 kts 280°
2026-04-30 14:50 70.64389 -47.45651 38146 ft 473 kts 280°
2026-04-30 14:51 70.66215 -47.74803 38149 ft 473 kts 280°
2026-04-30 14:52 70.68002 -48.04108 38155 ft 471 kts 279°
2026-04-30 14:52 70.69733 -48.33320 38165 ft 470 kts 279°
2026-04-30 14:53 70.71413 -48.62484 38170 ft 468 kts 279°
2026-04-30 14:54 70.73575 -49.01390 38173 ft 470 kts 278°
2026-04-30 14:55 70.75147 -49.30688 38174 ft 468 kts 278°
2026-04-30 14:56 70.77161 -49.69656 38161 ft 467 kts 278°
2026-04-30 14:57 70.78602 -49.98651 38122 ft 463 kts 277°
2026-04-30 14:58 70.80483 -50.37948 38110 ft 473 kts 277°
2026-04-30 14:58 70.81852 -50.67748 38087 ft 473 kts 277°
2026-04-30 15:00 70.84014 -51.17248 38072 ft 473 kts 276°
2026-04-30 15:01 70.85650 -51.57008 38067 ft 473 kts 276°
2026-04-30 15:01 70.86822 -51.86881 38056 ft 473 kts 276°
2026-04-30 15:02 70.87573 -52.06729 38071 ft 473 kts 276°
2026-04-30 15:03 70.89368 -52.56710 38045 ft 473 kts 275°
2026-04-30 15:04 70.91023 -53.06624 38040 ft 473 kts 275°
2026-04-30 15:06 70.92535 -53.56723 38041 ft 473 kts 274°
2026-04-30 15:07 70.93650 -53.96733 38043 ft 473 kts 274°
2026-04-30 15:08 70.94683 -54.36834 38036 ft 472 kts 273°
2026-04-30 15:09 70.95852 -54.87000 38038 ft 472 kts 273°
2026-04-30 15:10 70.96686 -55.27008 38041 ft 472 kts 272°
2026-04-30 15:11 70.97777 -55.87190 38044 ft 472 kts 272°
2026-04-30 15:13 70.98539 -56.37477 38043 ft 472 kts 271°
2026-04-30 15:14 70.99375 -57.07787 38057 ft 471 kts 270°
2026-04-30 15:17 71.00043 -57.95069 38072 ft 472 kts 270°
2026-04-30 15:19 71.00296 -58.75532 38075 ft 472 kts 269°
2026-04-30 17:39 63.03465 -104.51686 38285 ft 499 kts 228°
2026-04-30 17:42 62.77995 -105.03749 38255 ft 500 kts 227°
2026-04-30 17:43 62.66033 -105.27763 38276 ft 501 kts 227°
2026-04-30 17:44 62.50619 -105.58301 38270 ft 502 kts 227°
2026-04-30 17:47 62.27340 -106.03578 38259 ft 501 kts 227°
2026-04-30 17:48 62.09151 -106.38283 38249 ft 501 kts 227°
2026-04-30 17:50 61.88225 -106.77498 38232 ft 499 kts 227°
2026-04-30 17:52 61.72585 -107.06330 38216 ft 499 kts 226°
2026-04-30 17:54 61.48931 -107.49176 38190 ft 498 kts 226°
2026-04-30 17:56 61.27789 -107.86729 38160 ft 498 kts 226°
2026-04-30 17:58 61.11886 -108.14522 38152 ft 499 kts 226°
2026-04-30 18:00 60.90673 -108.51017 38149 ft 497 kts 225°
2026-04-30 18:01 60.77348 -108.73611 38131 ft 497 kts 225°
2026-04-30 18:02 60.61406 -109.00307 38125 ft 493 kts 225°
2026-04-30 18:04 60.45408 -109.26757 38109 ft 495 kts 225°
2026-04-30 18:06 60.24151 -109.61358 38104 ft 491 kts 225°
2026-04-30 18:08 60.05458 -109.91303 38094 ft 491 kts 224°
2026-04-30 18:10 59.83336 -110.23508 38094 ft 491 kts 221°
2026-04-30 18:11 59.63743 -110.50761 38094 ft 493 kts 221°
2026-04-30 18:13 59.49731 -110.70022 38098 ft 490 kts 221°
2026-04-30 18:14 59.35715 -110.89099 38096 ft 490 kts 220°
2026-04-30 18:15 59.18836 -111.11811 38104 ft 491 kts 220°
2026-04-30 18:16 59.07584 -111.26800 38104 ft 491 kts 220°
2026-04-30 18:17 59.01916 -111.34305 38096 ft 491 kts 220°
2026-04-30 18:18 58.93480 -111.45418 38080 ft 492 kts 220°
2026-04-30 18:18 58.87798 -111.52865 38094 ft 492 kts 220°
2026-04-30 18:19 58.82147 -111.60240 38102 ft 491 kts 220°
2026-04-30 18:19 58.76459 -111.67636 38103 ft 491 kts 220°
2026-04-30 18:20 58.70791 -111.74977 38105 ft 491 kts 220°
2026-04-30 18:20 58.65131 -111.82278 38107 ft 492 kts 220°
2026-04-30 18:21 58.59432 -111.89597 38100 ft 491 kts 219°
2026-04-30 18:21 58.53772 -111.96841 38105 ft 493 kts 219°
2026-04-30 18:22 58.48047 -112.04140 38091 ft 494 kts 219°
2026-04-30 18:22 58.39459 -112.15030 38084 ft 494 kts 219°
2026-04-30 18:23 58.33756 -112.22226 38081 ft 494 kts 219°
2026-04-30 18:23 58.28014 -112.29441 38089 ft 492 kts 219°
2026-04-30 18:24 58.19439 -112.40167 38072 ft 492 kts 219°
2026-04-30 18:25 58.13732 -112.47275 38060 ft 494 kts 219°
2026-04-30 18:25 58.05092 -112.57976 38068 ft 495 kts 218°
2026-04-30 18:26 57.96453 -112.68608 38051 ft 494 kts 218°
2026-04-30 18:27 57.87829 -112.79167 38050 ft 493 kts 218°
2026-04-30 18:28 57.79190 -112.89685 38048 ft 494 kts 218°
2026-04-30 18:28 57.70520 -113.00179 38039 ft 496 kts 218°
2026-04-30 18:29 57.58958 -113.14070 38045 ft 494 kts 217°
2026-04-30 18:30 57.47364 -113.27901 38050 ft 495 kts 217°
2026-04-30 18:31 57.38659 -113.38216 38048 ft 496 kts 217°
2026-04-30 18:32 57.30913 -113.47344 38053 ft 496 kts 217°
2026-04-30 18:33 57.22178 -113.57583 38061 ft 496 kts 217°
2026-04-30 18:33 57.13432 -113.67775 38068 ft 496 kts 217°
2026-04-30 18:34 57.04666 -113.77933 38081 ft 496 kts 217°
2026-04-30 18:35 56.98831 -113.84664 38079 ft 498 kts 216°
2026-04-30 18:35 56.92968 -113.91402 38082 ft 499 kts 216°
2026-04-30 18:36 56.84130 -114.01509 38086 ft 499 kts 216°
2026-04-30 18:37 56.75312 -114.11535 38083 ft 497 kts 216°
2026-04-30 18:37 56.69457 -114.18162 38083 ft 496 kts 216°
2026-04-30 18:38 56.63604 -114.24765 38082 ft 497 kts 216°
2026-04-30 18:38 56.57695 -114.31409 38083 ft 499 kts 216°
2026-04-30 18:39 56.51809 -114.37997 38079 ft 499 kts 216°
2026-04-30 18:39 56.45892 -114.44595 38080 ft 498 kts 215°
2026-04-30 18:40 56.39968 -114.51176 38081 ft 498 kts 215°
2026-04-30 18:40 56.34072 -114.57703 38088 ft 498 kts 215°
2026-04-30 18:41 56.28184 -114.64197 38088 ft 498 kts 215°
2026-04-30 18:41 56.22257 -114.70712 38090 ft 498 kts 215°
2026-04-30 18:42 56.16363 -114.77167 38094 ft 497 kts 214°
2026-04-30 18:42 56.07515 -114.86809 38108 ft 496 kts 214°
2026-04-30 18:45 55.75059 -115.21745 38119 ft 496 kts 214°
2026-04-30 18:46 55.69114 -115.28068 38133 ft 496 kts 214°
2026-04-30 18:46 55.63207 -115.34328 38133 ft 496 kts 214°
2026-04-30 18:47 55.57270 -115.40600 38139 ft 495 kts 213°
2026-04-30 18:47 55.51390 -115.46787 38137 ft 493 kts 213°
2026-04-30 18:48 55.45498 -115.52969 38136 ft 495 kts 213°
2026-04-30 18:48 55.39554 -115.59182 38140 ft 495 kts 213°
2026-04-30 18:49 55.33642 -115.65338 38138 ft 495 kts 213°
2026-04-30 18:49 55.27692 -115.71513 38130 ft 494 kts 213°
2026-04-30 18:50 55.21810 -115.77594 38138 ft 492 kts 213°
2026-04-30 18:50 55.15895 -115.83691 38135 ft 492 kts 213°
2026-04-30 18:51 55.10009 -115.89738 38132 ft 494 kts 213°
2026-04-30 18:51 55.04089 -115.95799 38132 ft 494 kts 213°
2026-04-30 18:52 54.98167 -116.01828 38141 ft 493 kts 212°
2026-04-30 18:52 54.92173 -116.07651 38143 ft 491 kts 211°
2026-04-30 18:53 54.86195 -116.13338 38134 ft 491 kts 211°
2026-04-30 18:53 54.80188 -116.19068 38144 ft 491 kts 211°
2026-04-30 18:54 54.74207 -116.24785 38145 ft 493 kts 211°
2026-04-30 18:54 54.68227 -116.30493 38143 ft 493 kts 211°
2026-04-30 18:55 54.62217 -116.36206 38148 ft 491 kts 211°
2026-04-30 18:55 54.53274 -116.44668 38151 ft 491 kts 211°
2026-04-30 18:56 54.44294 -116.53124 38152 ft 491 kts 211°
2026-04-30 18:57 54.35265 -116.61583 38159 ft 491 kts 210°
2026-04-30 18:57 54.29278 -116.67168 38158 ft 491 kts 210°
2026-04-30 18:58 54.20356 -116.75457 38166 ft 491 kts 210°
2026-04-30 18:59 54.11313 -116.83817 38179 ft 491 kts 210°
2026-04-30 19:00 53.99307 -116.94872 38184 ft 493 kts 210°
2026-04-30 19:01 53.87199 -117.05936 38183 ft 494 kts 210°
2026-04-30 19:02 53.78108 -117.14188 38186 ft 493 kts 210°
2026-04-30 19:03 53.66037 -117.25080 38195 ft 493 kts 210°
2026-04-30 19:04 53.53874 -117.35987 38197 ft 496 kts 210°
2026-04-30 19:05 53.41773 -117.46764 38201 ft 492 kts 210°
2026-04-30 19:06 53.29660 -117.57485 38209 ft 494 kts 210°
2026-04-30 19:06 53.20513 -117.65536 38221 ft 496 kts 209°
2026-04-30 19:07 53.11374 -117.73537 38229 ft 493 kts 209°
2026-04-30 19:08 53.05291 -117.78838 38516 ft 494 kts 209°
2026-04-30 19:08 52.99222 -117.84119 39096 ft 491 kts 209°
2026-04-30 19:08 52.96237 -117.86711 39298 ft 491 kts 209°
2026-04-30 19:09 52.90165 -117.91965 39650 ft 490 kts 209°
2026-04-30 19:09 52.87141 -117.94574 39893 ft 490 kts 209°
2026-04-30 19:09 52.84116 -117.97181 39983 ft 492 kts 209°
2026-04-30 19:10 52.78017 -118.02427 40107 ft 496 kts 209°
2026-04-30 19:10 52.71864 -118.07701 40218 ft 500 kts 209°
2026-04-30 19:11 52.62568 -118.15637 40281 ft 503 kts 209°
2026-04-30 19:12 52.56266 -118.20611 40295 ft 502 kts 205°
2026-04-30 19:12 52.49856 -118.25169 40288 ft 502 kts 205°
2026-04-30 19:13 52.37075 -118.34353 40293 ft 502 kts 205°
2026-04-30 19:14 52.30708 -118.38988 40296 ft 500 kts 205°
2026-04-30 19:14 52.24346 -118.43610 40290 ft 501 kts 205°
2026-04-30 19:15 52.17969 -118.48224 40291 ft 502 kts 205°
2026-04-30 19:15 52.08434 -118.55097 40292 ft 502 kts 205°
2026-04-30 19:16 52.02043 -118.59680 40287 ft 501 kts 205°
2026-04-30 19:17 51.92490 -118.66506 40292 ft 501 kts 205°
2026-04-30 19:17 51.82896 -118.73337 40288 ft 502 kts 205°
2026-04-30 19:18 51.73294 -118.80129 40276 ft 502 kts 205°
2026-04-30 19:19 51.66907 -118.84632 40272 ft 500 kts 205°
2026-04-30 19:19 51.57340 -118.91354 40275 ft 501 kts 205°
2026-04-30 19:20 51.50937 -118.95836 40264 ft 502 kts 205°
2026-04-30 19:21 51.41307 -119.02548 40257 ft 502 kts 205°
2026-04-30 19:22 51.28584 -119.11370 40252 ft 500 kts 205°
2026-04-30 19:23 51.10389 -119.23898 40251 ft 503 kts 205°
2026-04-30 19:24 51.00790 -119.30462 40244 ft 502 kts 205°
2026-04-30 19:25 50.84656 -119.41430 40242 ft 506 kts 205°
2026-04-30 19:26 50.71754 -119.50138 40231 ft 503 kts 205°
2026-04-30 19:27 50.62130 -119.56604 40232 ft 504 kts 205°
2026-04-30 19:28 50.52430 -119.63090 40230 ft 505 kts 204°
2026-04-30 19:29 50.39518 -119.71675 40230 ft 503 kts 204°
2026-04-30 19:30 50.26613 -119.80210 40231 ft 505 kts 204°
2026-04-30 19:31 50.13710 -119.88690 40230 ft 503 kts 204°
2026-04-30 19:31 50.04028 -119.95022 40231 ft 503 kts 204°
2026-04-30 19:32 49.97563 -119.99233 40228 ft 504 kts 204°
2026-04-30 19:32 49.91072 -120.03450 40228 ft 504 kts 204°
2026-04-30 19:33 49.84649 -120.07611 40227 ft 503 kts 204°
2026-04-30 19:33 49.78186 -120.11785 40228 ft 503 kts 204°
2026-04-30 19:34 49.71714 -120.15954 40224 ft 503 kts 204°
2026-04-30 19:35 49.62015 -120.22176 40216 ft 503 kts 204°
2026-04-30 19:35 49.55553 -120.26308 40210 ft 502 kts 204°
2026-04-30 19:36 49.49104 -120.30421 40207 ft 502 kts 204°
2026-04-30 19:36 49.39419 -120.36600 40187 ft 501 kts 206°
2026-04-30 19:37 49.33378 -120.41810 40208 ft 497 kts 212°
2026-04-30 19:37 49.27480 -120.47189 40215 ft 496 kts 213°
2026-04-30 19:38 49.21551 -120.52606 40223 ft 496 kts 213°
2026-04-30 19:38 49.15623 -120.58013 40227 ft 496 kts 213°
2026-04-30 19:39 49.09712 -120.63392 40218 ft 493 kts 213°
2026-04-30 19:39 49.03816 -120.68742 40209 ft 492 kts 213°
2026-04-30 19:40 48.97920 -120.74078 40214 ft 494 kts 212°
2026-04-30 19:40 48.91985 -120.79428 40201 ft 495 kts 212°
2026-04-30 19:41 48.86065 -120.84750 40207 ft 494 kts 212°
2026-04-30 19:41 48.80187 -120.90021 40193 ft 492 kts 212°
2026-04-30 19:42 48.74290 -120.95300 40128 ft 492 kts 212°
2026-04-30 19:42 48.71353 -120.97922 39790 ft 485 kts 212°
2026-04-30 19:42 48.68436 -121.00523 38914 ft 485 kts 213°
2026-04-30 19:43 48.65523 -121.03118 37578 ft 488 kts 212°
2026-04-30 19:43 48.62586 -121.05733 36977 ft 491 kts 212°
2026-04-30 19:43 48.59631 -121.08359 36368 ft 495 kts 212°
2026-04-30 19:44 48.53653 -121.13657 35156 ft 500 kts 212°
2026-04-30 19:44 48.50690 -121.16275 34184 ft 488 kts 212°
2026-04-30 19:44 48.47744 -121.18877 33147 ft 498 kts 212°
2026-04-30 19:44 48.44740 -121.21529 32461 ft 499 kts 211°
2026-04-30 19:45 48.41740 -121.24173 31517 ft 500 kts 211°
2026-04-30 19:45 48.38767 -121.26789 30538 ft 503 kts 211°
2026-04-30 19:45 48.35737 -121.29450 29424 ft 505 kts 211°
2026-04-30 19:45 48.32707 -121.32109 28566 ft 502 kts 211°
2026-04-30 19:46 48.29709 -121.34736 27875 ft 496 kts 210°
2026-04-30 19:46 48.26739 -121.37334 27199 ft 490 kts 210°
2026-04-30 19:46 48.23808 -121.39895 26519 ft 486 kts 210°
2026-04-30 19:46 48.20898 -121.42436 25857 ft 481 kts 210°
2026-04-30 19:47 48.18013 -121.44951 25160 ft 477 kts 209°
2026-04-30 19:47 48.16114 -121.46605 24721 ft 474 kts 209°
2026-04-30 19:47 48.12319 -121.49904 23834 ft 468 kts 209°
2026-04-30 19:47 48.09517 -121.52336 23090 ft 464 kts 209°
2026-04-30 19:48 48.06740 -121.54744 22411 ft 457 kts 208°
2026-04-30 19:48 48.04045 -121.57078 21761 ft 451 kts 208°
2026-04-30 19:48 48.01348 -121.59411 21109 ft 445 kts 208°
2026-04-30 19:48 47.98676 -121.61719 20453 ft 440 kts 208°
2026-04-30 19:49 47.96040 -121.63993 19799 ft 435 kts 207°
2026-04-30 19:49 47.90845 -121.68465 18468 ft 427 kts 208°
2026-04-30 19:49 47.88362 -121.70859 17763 ft 423 kts 216°
2026-04-30 19:50 47.86141 -121.73691 17102 ft 418 kts 220°
2026-04-30 19:50 47.84008 -121.76593 16399 ft 414 kts 221°
2026-04-30 19:50 47.81890 -121.79485 15602 ft 412 kts 221°
2026-04-30 19:50 47.79785 -121.82350 14901 ft 408 kts 221°
2026-04-30 19:51 47.77701 -121.85178 14234 ft 404 kts 221°
2026-04-30 19:51 47.75640 -121.87975 13713 ft 395 kts 221°
2026-04-30 19:51 47.73634 -121.90688 13603 ft 389 kts 221°
2026-04-30 19:51 47.72317 -121.92463 13495 ft 389 kts 221°